TimeEDT,TemperatureF,Dew PointF,Humidity,Sea Level PressureIn,VisibilityMPH,Wind Direction,Wind SpeedMPH,Gust SpeedMPH,PrecipitationIn,Events,Conditions,WindDirDegrees,DateUTC
12:53 AM,73.9,68.0,82,30.00,10.0,SW,5.8,-,N/A,,Clear,220,2013-09-12 04:53:00
1:53 AM,75.0,69.1,82,29.99,7.0,SW,5.8,-,N/A,,Clear,230,2013-09-12 05:53:00
2:53 AM,75.9,71.1,85,29.98,7.0,WSW,5.8,-,N/A,,Clear,240,2013-09-12 06:53:00
3:53 AM,72.0,69.1,91,29.98,5.0,Calm,Calm,-,N/A,,Clear,0,2013-09-12 07:53:00
4:53 AM,72.0,69.1,91,29.97,4.0,Calm,Calm,-,N/A,,Scattered Clouds,0,2013-09-12 08:53:00
5:53 AM,75.0,71.1,87,29.96,5.0,SW,6.9,-,N/A,,Overcast,220,2013-09-12 09:53:00
6:51 AM,73.4,71.6,94,30.00,4.0,NW,4.6,-,N/A,,Mostly Cloudy,310,2013-09-12 10:51:00
6:53 AM,73.9,71.1,91,29.97,4.0,NW,3.5,-,N/A,,Mostly Cloudy,310,2013-09-12 10:53:00
7:23 AM,73.4,69.8,88,30.01,5.0,NNW,5.8,-,N/A,,Overcast,340,2013-09-12 11:23:00
7:41 AM,73.4,69.8,88,30.01,1.8,North,6.9,-,0.13,Rain,Heavy Rain,10,2013-09-12 11:41:00
7:51 AM,71.6,69.8,94,30.01,1.5,NNE,8.1,-,0.32,Rain,Heavy Rain,30,2013-09-12 11:51:00
7:53 AM,72.0,69.1,91,29.99,1.8,North,5.8,-,0.33,Rain,Heavy Rain,10,2013-09-12 11:53:00
7:59 AM,71.6,69.8,94,30.02,3.0,North,5.8,-,0.01,Rain,Rain,350,2013-09-12 11:59:00
8:10 AM,71.6,69.8,94,30.01,2.5,North,4.6,-,0.08,Rain,Rain,350,2013-09-12 12:10:00
8:24 AM,71.6,69.8,94,30.01,5.0,Calm,Calm,-,0.10,Rain,Light Rain,0,2013-09-12 12:24:00
8:39 AM,71.6,69.8,94,30.01,1.8,Calm,Calm,-,0.14,Rain,Light Rain,0,2013-09-12 12:39:00
8:53 AM,72.0,69.1,91,30.00,1.8,Calm,Calm,-,0.20,Rain,Rain,0,2013-09-12 12:53:00
9:02 AM,71.6,69.8,94,30.00,1.5,ENE,4.6,-,0.05,Rain,Rain,70,2013-09-12 13:02:00
9:09 AM,71.6,69.8,94,30.01,3.0,Calm,Calm,-,0.05,Rain,Light Rain,0,2013-09-12 13:09:00
9:53 AM,73.0,69.1,87,30.01,4.0,WSW,3.5,-,0.06,Rain,Light Rain,250,2013-09-12 13:53:00
10:15 AM,73.4,69.8,88,30.04,2.5,WSW,5.8,-,0.02,Rain,Light Rain,240,2013-09-12 14:15:00
10:22 AM,71.6,69.8,94,30.04,4.0,SW,5.8,-,0.03,Rain,Light Rain,220,2013-09-12 14:22:00
10:53 AM,73.0,70.0,90,30.01,5.0,SW,5.8,-,0.04,,Overcast,220,2013-09-12 14:53:00
11:15 AM,73.4,69.8,88,30.03,5.0,WSW,4.6,-,N/A,,Overcast,250,2013-09-12 15:15:00
11:30 AM,73.4,69.8,88,30.03,6.0,WSW,6.9,-,N/A,,Overcast,240,2013-09-12 15:30:00
11:51 AM,73.4,69.8,88,30.02,8.0,West,6.9,-,0.00,Rain,Light Rain,280,2013-09-12 15:51:00
11:53 AM,73.9,70.0,87,30.00,9.0,West,5.8,-,0.00,Rain,Light Rain,280,2013-09-12 15:53:00
12:39 PM,75.2,69.8,83,30.01,10.0,West,9.2,-,0.00,Rain,Light Rain,270,2013-09-12 16:39:00
12:53 PM,75.9,70.0,82,29.98,10.0,West,8.1,-,0.00,Rain,Light Rain,270,2013-09-12 16:53:00
1:29 PM,75.2,69.8,83,30.00,10.0,West,9.2,-,0.00,,Mostly Cloudy,280,2013-09-12 17:29:00
1:53 PM,77.0,69.1,76,29.97,8.0,WNW,9.2,-,0.00,,Mostly Cloudy,290,2013-09-12 17:53:00
2:53 PM,79.0,69.1,72,29.95,10.0,West,8.1,-,N/A,,Scattered Clouds,280,2013-09-12 18:53:00
3:53 PM,80.1,66.9,64,29.92,10.0,WNW,9.2,-,N/A,,Partly Cloudy,290,2013-09-12 19:53:00
4:53 PM,81.0,64.9,58,29.90,10.0,WNW,9.2,16.1,N/A,,Partly Cloudy,290,2013-09-12 20:53:00
5:53 PM,82.0,64.9,56,29.88,10.0,West,11.5,-,N/A,,Partly Cloudy,260,2013-09-12 21:53:00
6:53 PM,81.0,63.0,54,29.87,10.0,WSW,10.4,-,N/A,,Mostly Cloudy,250,2013-09-12 22:53:00
7:53 PM,77.0,63.0,62,29.88,10.0,WSW,9.2,-,N/A,,Scattered Clouds,240,2013-09-12 23:53:00
8:53 PM,77.0,51.1,40,29.91,10.0,NW,13.8,23.0,N/A,,Scattered Clouds,320,2013-09-13 00:53:00
9:53 PM,72.0,50.0,46,29.93,10.0,NNW,13.8,19.6,N/A,,Partly Cloudy,330,2013-09-13 01:53:00
10:53 PM,70.0,55.0,59,29.94,10.0,NNW,11.5,-,N/A,,Clear,340,2013-09-13 02:53:00
11:53 PM,68.0,54.0,61,29.96,10.0,North,11.5,-,N/A,,Clear,350,2013-09-13 03:53:00